Regional Weather Roundup
Issued by NWS

Home | Current Version | Previous Version | Graphics & Text | Print | Product List | Glossary On
Versions: 1 2 3 4 5 6 7 8 9 10 11 12 13 14 15 16 17 18 19 20 21 22 23 24 25 26 27 28 29 30 31 32 33 34 35 36 37 38 39 40 41 42 43 44 45 46 47 48 49 50
655
ASUS44 KLIX 021110
RWRLA
LOUISIANA WEATHER ROUNDUP
NATIONAL WEATHER SERVICE NEW ORLEANS LA
600 AM CDT THU OCT 02 2014

NOTE: "FAIR" INDICATES FEW OR NO CLOUDS BELOW 12,000 FEET WITH NO
      SIGNIFICANT WEATHER AND/OR OBSTRUCTIONS TO VISIBILITY.
      SKY/WX - SKY CONDITION AND SIGNIFICANT WEATHER.
      TMP - AIR TEMPERATURE.    DP   - DEWPOINT TEMPERATURE.
      RH  - RELATIVE HUMIDITY.  PRES - PRESSURE.
      HX  - HEAT INDEX.         WCI  - WIND CHILL INDEX.

*  THESE STATIONS ARE NOT NWS OR FAA STATIONS AND ARE NOT UNDER
   NWS QUALITY CONTROL.

LAZ040-048-061>063-065-066-069-021200-
SOUTHEAST LOUISIANA

CITY           SKY/WX    TMP DP  RH WIND       PRES   REMARKS
N.O. AUDUBON     N/A     78  78  99 MISG        N/A
N.O. INTL ARPT PTCLDY    77  74  90 SE5       29.96R
N.O. LAKEFRONT CLEAR     77  75  93 SE3       29.96R
N.O. DOWNTOWN* FAIR      79  73  83 CALM      29.96R
SLIDELL        CLEAR     77  75  93 CALM      29.96R
BATON ROUGE    MOCLDY    75  73  93 SE3       29.95R
BOOTHVILLE     CLEAR     78  77  96 SE5       29.97R
BELLE CHASSE   PTCLDY    78  74  87 SE3       29.96R
BOGALUSA*      CLOUDY    77  73  87 CALM      29.98R
GALLIANO*      NOT AVBL
NEW ROADS*     CLOUDY    76  75  98 SE3       29.94R
GONZALES*      CLOUDY    76  76 100 CALM      29.95R FOG
HAMMOND*       MOCLDY    77  73  88 CALM      29.98R
HOUMA*           N/A    N/A N/A N/A CALM      29.95R FOG
PORT FOURCHON* SUNNY     81  77  89 SE5       29.99R

$$

LAZ041-044-053-054-021200-
SOUTHWEST LOUISIANA

CITY           SKY/WX    TMP DP  RH WIND       PRES   REMARKS
LAKE CHARLES   MOCLDY    77  77 100 SE3       29.89R
LAFAYETTE      FOG       77  77 100 CALM      29.93R VSB 1
PATTERSON      CLEAR     75  75 100 SE3       29.96R
SALT POINT       N/A     82  79  90 CALM      29.93R
NEW IBERIA     CLOUDY    78  76  93 SE5       29.93R FOG
CHENAULT AIRPK MOCLDY    75  75 100 CALM      29.90R

$$

LAZ027-028-021200-
CENTRAL LOUISIANA

CITY           SKY/WX    TMP DP  RH WIND       PRES   REMARKS
FORT POLK      CLOUDY    78  76  96 S7        29.89S
ALEXANDRIA INT CLOUDY    77  75  93 SE7       29.89S
ALEXANDRIA     CLOUDY    78  75  90 SW6       29.91R

$$

LAZ001-002-021200-
NORTHWEST LOUISIANA

CITY           SKY/WX    TMP DP  RH WIND       PRES   REMARKS
SHREVEPORT     MOCLDY    75  73  93 SE5       29.86R
BARKSDALE AFB  CLOUDY    75  75 100 SE8       29.87R
DTN SHREVEPORT CLOUDY    75  73  93 SE5       29.86S

$$

LAZ014-016-021200-
NORTHEAST LOUISIANA

CITY           SKY/WX    TMP DP  RH WIND       PRES   REMARKS
MONROE         CLOUDY    76  73  91 S6        29.91R
TALLULAH       MOCLDY    76  72  87 S7        29.93R

$$




USA.gov is the U.S. government's official web portal to all federal, state and local government web resources and services.